FW9306 Weather Reports


Display with metric or nautical units.
time (UTC)temp
F
wind
direction
speed
MPH
gust
MPH
rain 1hr
in
rain 24hr
in
rain mn
in
humidity
%
barometer
mb
20260507064744 62 192 1.0 1.0 0.00 0.00 0.00 37 1014.6
20260507064243 63 172 2.0 2.0 0.00 0.00 0.00 36 1014.7
20260507063740 63 186 2.0 3.0 0.00 0.00 0.00 35 1014.6
20260507063237 63 192 0.0 1.0 0.00 0.00 0.00 35 1014.7
20260507062734 63 141 1.0 1.0 0.00 0.00 0.00 35 1014.6
20260507062231 63 143 2.0 2.0 0.00 0.00 0.00 34 1014.4
20260507061730 64 194 1.0 1.0 0.00 0.00 0.00 35 1014.6
20260507061227 64 199 0.0 1.0 0.00 0.00 0.00 35 1014.5
20260507060725 64 189 1.0 1.0 0.00 0.00 0.00 35 1014.5
20260507060221 64 184 3.0 5.0 0.00 0.00 0.00 36 1014.5
20260507055717 64 179 0.0 0.0 0.00 0.00 0.00 35 1014.2
20260507055213 65 169 0.0 1.0 0.00 0.00 0.00 33 1014.4
20260507054709 66 231 1.0 1.0 0.00 0.00 0.00 32 1014.4
20260507054206 66 195 0.0 0.0 0.00 0.00 0.00 30 1014.1
20260507053704 66 177 0.0 0.0 0.00 0.00 0.00 32 1014.2
20260507053202 66 232 1.0 1.0 0.00 0.00 0.00 30 1014.3
20260507052701 66 189 0.0 0.0 0.00 0.00 0.00 31 1014.3
20260507052156 66 169 0.0 0.0 0.00 0.00 0.00 32 1014.2
20260507051654 67 270 0.0 0.0 0.00 0.00 0.00 30 1014.2
20260507051150 67 200 0.0 0.0 0.00 0.00 0.00 29 1014.1
20260507050647 67 142 0.0 0.0 0.00 0.00 0.00 29 1014.1
20260507050144 67 199 0.0 0.0 0.00 0.00 0.00 28 1014.2
20260507045641 67 161 0.0 0.0 0.00 0.00 0.00 29 1014.2
20260507045137 68 189 0.0 0.0 0.00 0.00 0.00 29 1014.0
20260507044634 68 229 1.0 1.0 0.00 0.00 0.00 27 1014.1
20260507044131 68 180 0.0 0.0 0.00 0.00 0.00 30 1014.0
20260507043627 68 310 1.0 1.0 0.00 0.00 0.00 28 1014.1
20260507043124 69 336 1.0 1.0 0.00 0.00 0.00 29 1014.1
20260507042620 69 329 1.0 1.0 0.00 0.00 0.00 29 1014.0
20260507042116 69 348 2.0 2.0 0.00 0.00 0.00 26 1014.0
20260507041613 69 107 0.0 1.0 0.00 0.00 0.00 27 1014.0
20260507041110 70 47 2.0 2.0 0.00 0.00 0.00 26 1013.7
20260507040607 70 206 0.0 1.0 0.00 0.00 0.00 29 1014.0
20260507035559 71 311 2.0 2.0 0.00 0.00 0.00 26 1013.5
20260507035055 71 277 3.0 3.0 0.00 0.00 0.00 25 1013.6
20260507034552 71 305 3.0 5.0 0.00 0.00 0.00 25 1013.6
20260507034050 71 258 1.0 1.0 0.00 0.00 0.00 26 1013.5
20260507033548 71 289 1.0 2.0 0.00 0.00 0.00 24 1013.5
20260507033044 71 327 2.0 2.0 0.00 0.00 0.00 25 1013.5
20260507032542 71 251 1.0 1.0 0.00 0.00 0.00 25 1013.3
20260507032038 71 211 2.0 2.0 0.00 0.00 0.00 25 1013.2
20260507031534 72 198 1.0 2.0 0.00 0.00 0.00 26 1013.3
20260507031032 71 191 1.0 2.0 0.00 0.00 0.00 25 1013.5
20260507030528 72 255 1.0 1.0 0.00 0.00 0.00 26 1013.2
20260507030026 72 301 1.0 2.0 0.00 0.00 0.00 26 1013.0
20260507025523 72 294 3.0 3.0 0.00 0.00 0.00 26 1013.2
20260507025020 72 259 1.0 1.0 0.00 0.00 0.00 27 1013.2
20260507024518 72 313 3.0 3.0 0.00 0.00 0.00 24 1012.9
20260507024014 72 255 1.0 1.0 0.00 0.00 0.00 27 1012.9
20260507023510 72 324 3.0 3.0 0.00 0.00 0.00 25 1012.9
20260507023008 72 310 3.0 3.0 0.00 0.00 0.00 25 1012.9
20260507022505 73 330 3.0 3.0 0.00 0.00 0.00 24 1013.0
20260507022000 73 314 4.0 5.0 0.00 0.00 0.00 24 1013.0
20260507021456 73 344 3.0 3.0 0.00 0.00 0.00 26 1012.9
20260507020953 73 351 3.0 3.0 0.00 0.00 0.00 26 1013.1
20260507020450 73 321 2.0 2.0 0.00 0.00 0.00 26 1013.1
20260507015947 73 294 3.0 5.0 0.00 0.00 0.00 28 1012.8
20260507015446 74 308 2.0 2.0 0.00 0.00 0.00 27 1012.9
20260507014942 74 10 2.0 2.0 0.00 0.00 0.00 25 1012.7
20260507014439 75 326 3.0 3.0 0.00 0.00 0.00 27 1012.7
20260507013935 75 330 1.0 2.0 0.00 0.00 0.00 25 1013.0
20260507013432 75 333 3.0 3.0 0.00 0.00 0.00 25 1012.7
20260507012929 75 342 2.0 3.0 0.00 0.00 0.00 25 1012.8
20260507012426 75 46 2.0 2.0 0.00 0.00 0.00 25 1012.7
20260507011923 76 278 2.0 2.0 0.00 0.00 0.00 25 1012.7
20260507011420 76 335 4.0 5.0 0.00 0.00 0.00 24 1012.7
20260507010920 76 358 5.0 6.0 0.00 0.00 0.00 23 1012.8
20260507010415 76 13 2.0 3.0 0.00 0.00 0.00 24 1012.7
20260507005913 76 2 3.0 5.0 0.00 0.00 0.00 24 1012.7
20260507005409 76 6 5.0 7.0 0.00 0.00 0.00 25 1012.8
20260507004906 77 86 3.0 5.0 0.00 0.00 0.00 24 1012.5
20260507004403 76 344 5.0 6.0 0.00 0.00 0.00 24 1012.7
20260507003900 77 301 4.0 5.0 0.00 0.00 0.00 23 1012.7
20260507003355 77 209 9.0 10.0 0.00 0.00 0.00 24 1012.5
20260507002851 77 287 5.0 6.0 0.00 0.00 0.00 24 1012.8
20260507002347 77 230 4.0 5.0 0.00 0.00 0.00 24 1012.5
20260507001844 77 308 4.0 6.0 0.00 0.00 0.00 23 1012.4
20260507001341 76 277 6.0 9.0 0.00 0.00 0.00 23 1012.4
20260507000838 76 269 4.0 5.0 0.00 0.00 0.00 23 1012.7
20260507000335 76 297 3.0 5.0 0.00 0.00 0.00 24 1012.4
20260506235830 77 317 3.0 3.0 0.00 0.00 0.00 24 1012.5
20260506235327 78 299 5.0 7.0 0.00 0.00 0.00 26 1012.4
20260506234823 78 299 5.0 6.0 0.00 0.00 0.00 24 1012.7
20260506234321 77 336 5.0 6.0 0.00 0.00 0.00 23 1012.3
20260506233818 77 231 5.0 6.0 0.00 0.00 0.00 23 1012.5
20260506233313 77 285 2.0 3.0 0.00 0.00 0.00 25 1012.7
20260506232810 77 161 1.0 2.0 0.00 0.00 0.00 24 1012.4
20260506232306 77 290 3.0 3.0 0.00 0.00 0.00 23 1012.8
20260506231803 77 313 4.0 6.0 0.00 0.00 0.00 25 1012.8
20260506231300 77 314 5.0 5.0 0.00 0.00 0.00 26 1012.8
20260506230758 78 276 3.0 3.0 0.00 0.00 0.00 27 1012.7
20260506230249 78 196 5.0 7.0 0.00 0.00 0.00 25 1012.8
20260506225745 78 212 3.0 5.0 0.00 0.00 0.00 24 1012.8
20260506225243 78 316 8.0 9.0 0.00 0.00 0.00 25 1012.8
20260506224739 77 112 1.0 1.0 0.00 0.00 0.00 25 1012.9
20260506224237 77 45 5.0 6.0 0.00 0.00 0.00 25 1012.8
20260506223732 77 280 3.0 6.0 0.00 0.00 0.00 26 1012.9
20260506223228 77 356 5.0 7.0 0.00 0.00 0.00 27 1013.0
20260506222725 76 296 3.0 3.0 0.00 0.00 0.00 31 1013.3
20260506222220 77 7 7.0 9.0 0.00 0.00 0.00 26 1013.2
20260506221719 76 243 1.0 2.0 0.00 0.00 0.00 28 1013.2
20260506221217 76 237 3.0 3.0 0.00 0.00 0.00 30 1013.1
20260506220714 77 329 8.0 10.0 0.00 0.00 0.00 30 1013.2
20260506220208 76 267 0.0 0.0 0.00 0.00 0.00 28 1013.2
20260506215705 76 266 3.0 3.0 0.00 0.00 0.00 29 1013.3
20260506215201 76 241 5.0 7.0 0.00 0.00 0.00 29 1013.4
20260506214658 77 228 1.0 1.0 0.00 0.00 0.00 26 1013.6
20260506214155 75 225 2.0 2.0 0.00 0.00 0.00 29 1013.5
20260506213654 75 271 5.0 6.0 0.00 0.00 0.00 33 1013.6
20260506213150 75 283 3.0 3.0 0.00 0.00 0.00 27 1013.4
20260506212647 76 346 4.0 6.0 0.00 0.00 0.00 26 1013.6
20260506212142 75 289 5.0 7.0 0.00 0.00 0.00 28 1013.5
20260506211638 75 317 4.0 5.0 0.00 0.00 0.00 28 1013.7
20260506211135 76 310 5.0 6.0 0.00 0.00 0.00 27 1014.0
20260506210632 75 17 4.0 5.0 0.00 0.00 0.00 26 1014.0
20260506210129 75 223 2.0 3.0 0.00 0.00 0.00 27 1014.0
20260506205626 75 289 5.0 7.0 0.00 0.00 0.00 29 1014.1
20260506205120 76 233 5.0 6.0 0.00 0.00 0.00 27 1014.1
20260506204619 75 23 2.0 2.0 0.00 0.00 0.00 26 1014.0
20260506204115 74 2 3.0 3.0 0.00 0.00 0.00 26 1014.1
20260506203614 76 285 5.0 6.0 0.00 0.00 0.00 29 1014.4
20260506203109 73 231 2.0 2.0 0.00 0.00 0.00 28 1014.4
20260506202608 75 227 5.0 6.0 0.00 0.00 0.00 31 1014.2
20260506202104 74 295 6.0 8.0 0.00 0.00 0.00 29 1014.6
20260506201601 73 310 1.0 2.0 0.00 0.00 0.00 27 1014.5
20260506201058 75 222 4.0 5.0 0.00 0.00 0.00 28 1014.5
20260506200554 74 307 2.0 2.0 0.00 0.00 0.00 27 1014.6
20260506200051 73 205 2.0 2.0 0.00 0.00 0.00 29 1014.6
20260506195547 74 299 3.0 6.0 0.00 0.00 0.00 27 1014.6
20260506195044 74 205 2.0 2.0 0.00 0.00 0.00 25 1014.7
20260506194542 75 351 1.0 2.0 0.00 0.00 0.00 24 1014.9
20260506194038 75 151 5.0 6.0 0.00 0.00 0.00 25 1014.7
20260506193535 74 84 0.0 1.0 0.00 0.00 0.00 28 1015.0
20260506193032 73 67 3.0 5.0 0.00 0.00 0.00 27 1014.9
20260506192529 73 18 5.0 6.0 0.00 0.00 0.00 27 1015.1
20260506192025 72 28 6.0 7.0 0.00 0.00 0.00 27 1015.1
20260506191522 72 280 6.0 7.0 0.00 0.00 0.00 27 1014.9
20260506191018 72 246 3.0 3.0 0.00 0.00 0.00 30 1015.3
20260506190515 71 340 4.0 5.0 0.00 0.00 0.00 30 1015.3
20260506190012 71 19 3.0 3.0 0.00 0.00 0.00 31 1015.1
20260506185509 72 205 4.0 6.0 0.00 0.00 0.00 32 1015.4
20260506185006 71 321 2.0 2.0 0.00 0.00 0.00 32 1015.4
20260506184503 71 54 4.0 5.0 0.00 0.00 0.00 31 1015.4
20260506184000 72 99 4.0 5.0 0.00 0.00 0.00 32 1015.4
20260506183456 71 25 1.0 1.0 0.00 0.00 0.00 33 1015.4
20260506182953 71 102 6.0 7.0 0.00 0.00 0.00 39 1015.5
20260506182450 71 237 6.0 8.0 0.00 0.00 0.00 35 1015.4
20260506181947 71 5 3.0 3.0 0.00 0.00 0.00 36 1015.6
20260506181445 71 345 3.0 3.0 0.00 0.00 0.00 34 1015.7
20260506180942 71 218 2.0 2.0 0.00 0.00 0.00 33 1015.7
20260506180438 70 323 4.0 6.0 0.00 0.00 0.00 34 1016.0
20260506175935 71 233 2.0 3.0 0.00 0.00 0.00 36 1015.7
20260506175432 69 147 0.0 1.0 0.00 0.00 0.00 35 1015.8
20260506174928 70 258 1.0 1.0 0.00 0.00 0.00 39 1015.8
20260506174426 69 175 1.0 1.0 0.00 0.00 0.00 36 1015.8
20260506173923 69 23 2.0 2.0 0.00 0.00 0.00 37 1015.9
20260506173420 68 127 2.0 2.0 0.00 0.00 0.00 36 1015.8
20260506172917 68 9 2.0 2.0 0.00 0.00 0.00 38 1015.7
20260506172414 68 236 2.0 2.0 0.00 0.00 0.00 42 1015.8
20260506171911 69 255 3.0 3.0 0.00 0.00 0.00 38 1015.7
20260506171408 68 183 1.0 1.0 0.00 0.00 0.00 40 1015.8
20260506170906 68 221 0.0 1.0 0.00 0.00 0.00 39 1015.8
20260506170401 68 348 3.0 3.0 0.00 0.00 0.00 39 1015.9
20260506165855 67 316 3.0 3.0 0.00 0.00 0.00 41 1015.9
20260506165353 67 342 4.0 5.0 0.00 0.00 0.00 40 1015.8
20260506164849 68 53 3.0 3.0 0.00 0.00 0.00 39 1015.7
20260506164345 68 211 0.0 0.0 0.00 0.00 0.00 39 1015.7
20260506163843 68 186 1.0 1.0 0.00 0.00 0.00 40 1015.7
20260506163338 68 112 3.0 3.0 0.00 0.00 0.00 40 1015.9
20260506162833 68 126 1.0 1.0 0.00 0.00 0.00 41 1015.7
20260506162331 67 156 1.0 1.0 0.00 0.00 0.00 40 1015.5
20260506161829 67 185 1.0 2.0 0.00 0.00 0.00 43 1015.7
20260506161326 65 16 1.0 1.0 0.00 0.00 0.00 45 1015.5
20260506160823 64 184 1.0 1.0 0.00 0.00 0.00 47 1015.7
20260506160319 64 289 3.0 3.0 0.00 0.00 0.00 48 1015.6
20260506155818 64 276 3.0 3.0 0.00 0.00 0.00 48 1015.6
20260506155314 64 230 3.0 3.0 0.00 0.00 0.00 49 1015.5
20260506153427 63 139 1.0 1.0 0.00 0.00 0.00 48 1015.5
20260506152925 63 198 1.0 1.0 0.00 0.00 0.00 50 1015.5
20260506152421 64 187 1.0 1.0 0.00 0.00 0.00 49 1015.6
20260506151920 62 128 1.0 2.0 0.00 0.00 0.00 49 1015.7
20260506151417 63 175 0.0 1.0 0.00 0.00 0.00 52 1015.5
20260506150914 62 130 1.0 1.0 0.00 0.00 0.00 50 1015.6
20260506150410 62 226 3.0 3.0 0.00 0.00 0.00 53 1015.5
20260506145907 61 186 2.0 2.0 0.00 0.00 0.00 53 1015.8
20260506145403 60 214 2.0 2.0 0.00 0.00 0.00 53 1015.7
20260506144901 60 193 1.0 2.0 0.00 0.00 0.00 57 1015.5
20260506144357 60 216 3.0 3.0 0.00 0.00 0.00 56 1015.6
20260506143856 59 189 1.0 2.0 0.00 0.00 0.00 60 1015.6
20260506143352 59 195 2.0 2.0 0.00 0.00 0.00 60 1015.7
20260506142851 58 146 1.0 1.0 0.00 0.00 0.00 63 1015.7
20260506142348 57 147 1.0 1.0 0.00 0.00 0.00 64 1015.8
20260506141847 57 176 0.0 1.0 0.00 0.00 0.00 65 1015.6
20260506141344 57 184 3.0 5.0 0.00 0.00 0.00 66 1015.6
20260506140842 57 173 3.0 3.0 0.00 0.00 0.00 66 1015.6
20260506140339 56 164 0.0 0.0 0.00 0.00 0.00 69 1015.5
20260506135836 55 171 0.0 1.0 0.00 0.00 0.00 72 1015.6
20260506135332 53 197 4.0 5.0 0.00 0.00 0.00 72 1015.5
20260506134828 53 198 3.0 3.0 0.00 0.00 0.00 73 1015.3
20260506134325 53 180 3.0 3.0 0.00 0.00 0.00 72 1015.7
20260506133822 54 193 3.0 3.0 0.00 0.00 0.00 72 1015.4
20260506133319 54 174 0.0 0.0 0.00 0.00 0.00 73 1015.4
20260506132816 52 186 1.0 1.0 0.00 0.00 0.00 75 1015.3
20260506132313 51 199 2.0 2.0 0.00 0.00 0.00 77 1015.1
20260506131811 51 187 1.0 2.0 0.00 0.00 0.00 78 1015.5
20260506131307 51 195 3.0 3.0 0.00 0.00 0.00 78 1015.6
20260506130804 51 192 3.0 3.0 0.00 0.00 0.00 78 1015.4
20260506130300 51 194 3.0 3.0 0.00 0.00 0.00 76 1015.1
20260506125759 52 181 2.0 2.0 0.00 0.00 0.00 75 1015.1
20260506125256 52 180 0.0 1.0 0.00 0.00 0.00 75 1015.1
20260506124755 51 148 1.0 1.0 0.00 0.00 0.00 75 1015.3
20260506124252 51 100 1.0 1.0 0.00 0.00 0.00 75 1015.1
20260506123749 51 123 2.0 2.0 0.00 0.00 0.00 75 1014.9
20260506123248 51 114 1.0 2.0 0.00 0.00 0.00 76 1015.1
20260506122744 51 150 1.0 1.0 0.00 0.00 0.00 77 1014.8
20260506122241 50 165 0.0 0.0 0.00 0.00 0.00 78 1014.9
20260506121739 50 162 1.0 1.0 0.00 0.00 0.00 79 1014.7
20260506121236 51 177 0.0 0.0 0.00 0.00 0.00 79 1014.7
20260506120733 51 186 1.0 1.0 0.00 0.00 0.00 79 1014.6
20260506120231 51 182 1.0 1.0 0.00 0.00 0.00 79 1014.8
20260506115729 51 199 0.0 0.0 0.00 0.00 0.00 79 1014.8
20260506115227 51 179 0.0 1.0 0.00 0.00 0.00 79 1014.5
20260506114724 51 197 0.0 1.0 0.00 0.00 0.00 78 1014.5
20260506114221 51 213 1.0 2.0 0.00 0.00 0.00 79 1014.3
20260506113720 51 181 1.0 1.0 0.00 0.00 0.00 79 1014.5
20260506113217 51 166 0.0 0.0 0.00 0.00 0.00 78 1014.5
20260506112713 51 189 0.0 1.0 0.00 0.00 0.00 78 1014.4
20260506112211 52 180 0.0 1.0 0.00 0.00 0.00 77 1014.5
20260506111708 52 185 1.0 2.0 0.00 0.00 0.00 76 1014.4
20260506111206 52 180 0.0 1.0 0.00 0.00 0.00 76 1014.2
20260506110703 52 189 2.0 2.0 0.00 0.00 0.00 76 1014.2
20260506110201 53 197 1.0 1.0 0.00 0.00 0.00 75 1014.1
20260506105657 53 190 3.0 3.0 0.00 0.00 0.00 74 1014.4
20260506105154 53 181 0.0 0.0 0.00 0.00 0.00 73 1014.1
20260506104652 53 166 0.0 1.0 0.00 0.00 0.00 73 1014.3
20260506104149 53 192 0.0 1.0 0.00 0.00 0.00 73 1014.1
20260506103646 54 189 0.0 0.0 0.00 0.00 0.00 71 1014.1
20260506103143 54 177 0.0 0.0 0.00 0.00 0.00 70 1014.2
20260506102641 54 193 0.0 0.0 0.00 0.00 0.00 69 1014.1
20260506102138 55 188 1.0 1.0 0.00 0.00 0.00 68 1014.0
20260506101635 55 190 2.0 2.0 0.00 0.00 0.00 68 1014.0
20260506101132 54 185 0.0 0.0 0.00 0.00 0.00 69 1014.0
20260506100631 54 184 0.0 1.0 0.00 0.00 0.00 68 1014.2
20260506100128 55 185 0.0 0.0 0.00 0.00 0.00 69 1014.1
20260506095627 55 190 0.0 0.0 0.00 0.00 0.00 68 1013.8
20260506095123 55 197 1.0 1.0 0.00 0.00 0.00 66 1013.8
20260506094620 55 185 0.0 0.0 0.00 0.00 0.00 66 1013.5
20260506094118 55 189 1.0 2.0 0.00 0.00 0.00 67 1014.0
20260506093616 55 142 1.0 2.0 0.00 0.00 0.00 66 1013.6
20260506093113 56 121 1.0 1.0 0.00 0.00 0.00 66 1013.7
20260506092611 56 141 1.0 1.0 0.00 0.00 0.00 67 1013.7
20260506092108 55 133 1.0 2.0 0.00 0.00 0.00 68 1013.8
20260506091606 55 148 1.0 1.0 0.00 0.00 0.00 69 1013.6
20260506091103 56 164 1.0 1.0 0.00 0.00 0.00 71 1013.7
20260506090601 56 151 0.0 1.0 0.00 0.00 0.00 70 1013.4
20260506090057 57 181 1.0 1.0 0.00 0.00 0.00 70 1013.8
20260506085554 57 206 2.0 2.0 0.00 0.00 0.00 69 1013.5
20260506085050 57 195 3.0 3.0 0.00 0.00 0.00 69 1013.8
20260506084547 57 196 1.0 1.0 0.00 0.00 0.00 70 1013.8
20260506084043 57 182 1.0 1.0 0.00 0.00 0.00 69 1013.8
20260506083541 57 197 2.0 2.0 0.00 0.00 0.00 69 1013.8
20260506083038 57 201 3.0 3.0 0.00 0.00 0.00 69 1013.8
20260506082535 57 171 2.0 2.0 0.00 0.00 0.00 69 1013.8
20260506082030 57 238 1.0 1.0 0.00 0.00 0.00 69 1014.0
20260506081529 57 159 1.0 1.0 0.00 0.00 0.00 69 1014.0
20260506081026 58 147 1.0 2.0 0.00 0.00 0.00 68 1013.7
20260506080523 58 166 1.0 1.0 0.00 0.00 0.00 67 1013.8
20260506073507 60 220 1.0 1.0 0.00 0.00 0.00 62 1014.1
20260506073004 60 198 0.0 0.0 0.00 0.00 0.00 62 1013.8
20260506072501 60 257 1.0 1.0 0.00 0.00 0.00 61 1013.7
20260506071959 60 191 0.0 0.0 0.00 0.00 0.00 60 1014.0
20260506071456 60 225 1.0 1.0 0.00 0.00 0.00 60 1013.8
20260506070953 61 253 1.0 2.0 0.00 0.00 0.00 60 1013.7
20260506070450 60 219 3.0 3.0 0.00 0.00 0.00 60 1014.0